Regional Weather Roundup
Issued by NWS

Home | Current Version | Previous Version | Text Only | Print | Product List | Glossary On
Versions: 1 2 3 4 5 6 7 8 9 10 11 12 13 14 15 16 17 18 19 20 21 22 23 24 25 26 27 28 29 30 31 32 33 34 35 36 37 38 39 40 41 42 43 44 45 46 47 48 49 50
000
ASUS43 KBIS 180720
RWRND

NORTH DAKOTA REGIONAL WEATHER ROUNDUP
NATIONAL WEATHER SERVICE BISMARCK ND
200 AM CDT FRI APR 18 2014

NOTE: "FAIR" INDICATES FEW OR NO CLOUDS BELOW 12,000 FEET WITH NO
SIGNIFICANT WEATHER AND/OR OBSTRUCTIONS TO VISIBILITY.


NDZ001>003-009>011-017-180800-
NORTHWEST NORTH DAKOTA

CITY           SKY/WX    TMP DP  RH WIND       PRES   REMARKS
WILLISTON      LGT RAIN  39  28  64 SE10G18   29.98F
MINOT          PTCLDY    32  22  66 E13       30.11S
MINOT AFB      PTCLDY    32  23  68 SE13      30.11S
$$

NDZ018>021-031>035-040>046-180800-
SOUTHWEST NORTH DAKOTA

CITY           SKY/WX    TMP DP  RH WIND       PRES   REMARKS
BISMARCK       CLOUDY    35  23  61 SE10      30.13S
DICKINSON      CLOUDY    35  24  64 SE16      29.97F
GARRISON         N/A     35  25  66 SE12      30.09S
HETTINGER ARPT CLOUDY    35  24  64 SE14      29.98F
$$

NDZ004>008-012>016-024-026-027-054-180800-
NORTHEAST NORTH DAKOTA

CITY           SKY/WX    TMP DP  RH WIND       PRES   REMARKS
GRAND FORKS    CLOUDY    31  22  69 E5        30.29F
GRND FRKS AFB  CLOUDY    32  20  63 E3        30.30R
DEVILS LAKE    CLOUDY    32  16  51 SE14      30.23S
$$

NDZ022-023-025-028>030-036>039-047>053-180800-
SOUTHEAST NORTH DAKOTA

CITY           SKY/WX    TMP DP  RH WIND       PRES   REMARKS
FARGO          CLOUDY    33  22  63 E7        30.28S
JAMESTOWN      MOCLDY    32  21  64 E12       30.21S
$$




USA.gov is the U.S. government's official web portal to all federal, state and local government web resources and services.